BADGR41 KEDW-KEDW

Flight info

Callsign BADGR41
Flight time 0h 28m
Altitude 23000
Route KEDW KBYS KNID KEDW
Aircraft F22/L-ICAO/C

Departure

Time 2026-05-05 19:33
Airport Edwards Air Force Base (KEDW)

Arrival

Time 2026-05-05 20:02
Airport Edwards Air Force Base (KEDW)
Time Latitude Longitude Altitude Speed Heading
2026-05-05 19:28 34.91989 -117.88581 2308 ft 0 kts 328°
2026-05-05 19:29 34.91990 -117.88582 2308 ft 0 kts 328°
2026-05-05 19:30 34.92024 -117.88582 2299 ft 8 kts 47°
2026-05-05 19:30 34.92071 -117.88480 2298 ft 20 kts 62°
2026-05-05 19:30 34.92149 -117.88319 2304 ft 24 kts 59°
2026-05-05 19:30 34.92134 -117.88119 2297 ft 26 kts 106°
2026-05-05 19:31 34.92083 -117.87895 2300 ft 29 kts 105°
2026-05-05 19:31 34.92028 -117.87652 2303 ft 31 kts 106°
2026-05-05 19:31 34.91973 -117.87417 2296 ft 23 kts 105°
2026-05-05 19:31 34.91925 -117.87218 2303 ft 25 kts 105°
2026-05-05 19:32 34.91878 -117.87008 2303 ft 26 kts 104°
2026-05-05 19:32 34.91826 -117.86786 2308 ft 28 kts 105°
2026-05-05 19:32 34.91771 -117.86548 2301 ft 30 kts 105°
2026-05-05 19:32 34.91728 -117.86364 2301 ft 15 kts 110°
2026-05-05 19:33 34.91644 -117.86295 2299 ft 16 kts 176°
2026-05-05 19:33 34.91545 -117.86417 2304 ft 71 kts 238°
2026-05-05 19:33 34.90704 -117.88062 2423 ft 403 kts 237°
2026-05-05 19:33 34.88870 -117.91570 7914 ft 510 kts 238°
2026-05-05 19:34 34.86333 -117.90418 13745 ft 700 kts 108°
2026-05-05 19:34 34.88486 -117.84536 10024 ft 876 kts 51°
2026-05-05 19:34 34.91893 -117.79125 10835 ft 726 kts 57°
2026-05-05 19:35 34.95567 -117.69099 11711 ft 667 kts 103°
2026-05-05 19:35 34.95879 -117.64006 11986 ft 622 kts 57°
2026-05-05 19:35 34.97459 -117.59135 15331 ft 643 kts 72°
2026-05-05 19:35 34.98728 -117.54223 18318 ft 570 kts 70°
2026-05-05 19:36 34.99970 -117.49724 21010 ft 562 kts 69°
2026-05-05 19:36 35.01265 -117.45146 21729 ft 594 kts 70°
2026-05-05 19:36 35.02691 -117.40224 22386 ft 674 kts 66°
2026-05-05 19:36 35.04816 -117.34131 22649 ft 885 kts 64°
2026-05-05 19:37 35.07629 -117.26582 23136 ft 1055 kts 64°
2026-05-05 19:37 35.10916 -117.17996 23191 ft 1167 kts 65°
2026-05-05 19:37 35.14308 -117.08685 23136 ft 1226 kts 66°
2026-05-05 19:37 35.17772 -116.99017 23068 ft 1233 kts 66°
2026-05-05 19:38 35.20779 -116.90670 22881 ft 930 kts 64°
2026-05-05 19:38 35.22105 -116.84502 15556 ft 725 kts 94°
2026-05-05 19:38 35.21185 -116.78803 12025 ft 616 kts 99°
2026-05-05 19:38 35.20819 -116.73954 9646 ft 547 kts 76°
2026-05-05 19:39 35.22274 -116.69973 8622 ft 484 kts 58°
2026-05-05 19:39 35.24293 -116.66883 7107 ft 453 kts 49°
2026-05-05 19:39 35.26244 -116.63991 5831 ft 429 kts 51°
2026-05-05 19:39 35.27388 -116.62069 5394 ft 409 kts 52°
2026-05-05 19:40 35.28989 -116.59409 5357 ft 367 kts 51°
2026-05-05 19:40 35.30400 -116.56994 5406 ft 331 kts 52°
2026-05-05 19:40 35.31368 -116.57645 4308 ft 231 kts 255°
2026-05-05 19:40 35.30677 -116.59524 3534 ft 228 kts 230°
2026-05-05 19:41 35.30019 -116.60413 3003 ft 191 kts 226°
2026-05-05 19:41 35.29257 -116.61546 2465 ft 159 kts 226°
2026-05-05 19:41 35.28646 -116.62467 2338 ft 119 kts 226°
2026-05-05 19:41 35.27936 -116.63597 2633 ft 286 kts 236°
2026-05-05 19:42 35.26406 -116.66050 7317 ft 463 kts 232°
2026-05-05 19:42 35.24853 -116.70526 11755 ft 721 kts 294°
2026-05-05 19:42 35.29616 -116.72115 12510 ft 846 kts 16°
2026-05-05 19:42 35.34669 -116.72048 12351 ft 722 kts 307°
2026-05-05 19:43 35.35553 -116.77734 11993 ft 658 kts 273°
2026-05-05 19:43 35.35676 -116.83127 9674 ft 620 kts 270°
2026-05-05 19:43 35.35687 -116.88464 8818 ft 634 kts 290°
2026-05-05 19:43 35.38154 -116.92999 9399 ft 656 kts 314°
2026-05-05 19:44 35.41170 -116.97188 9439 ft 670 kts 294°
2026-05-05 19:44 35.43137 -117.02815 9465 ft 806 kts 291°
2026-05-05 19:44 35.45605 -117.09599 9613 ft 920 kts 296°
2026-05-05 19:44 35.48462 -117.16893 9775 ft 967 kts 296°
2026-05-05 19:45 35.51447 -117.24401 10117 ft 989 kts 296°
2026-05-05 19:45 35.54453 -117.32047 10148 ft 973 kts 296°
2026-05-05 19:45 35.56833 -117.38562 9992 ft 720 kts 290°
2026-05-05 19:45 35.58205 -117.43711 8521 ft 504 kts 286°
2026-05-05 19:46 35.60914 -117.47080 4733 ft 577 kts 332°
2026-05-05 19:46 35.64654 -117.47812 4812 ft 596 kts 41°
2026-05-05 19:46 35.63205 -117.43287 4967 ft 704 kts 156°
2026-05-05 19:46 35.59963 -117.45268 5349 ft 579 kts 273°
2026-05-05 19:47 35.61327 -117.49771 5569 ft 576 kts 294°
2026-05-05 19:47 35.63156 -117.54777 5887 ft 680 kts 292°
2026-05-05 19:47 35.65026 -117.59918 6201 ft 626 kts 293°
2026-05-05 19:47 35.66688 -117.64740 6064 ft 602 kts 290°
2026-05-05 19:48 35.68114 -117.69595 5871 ft 602 kts 287°
2026-05-05 19:48 35.69162 -117.74455 5895 ft 571 kts 275°
2026-05-05 19:48 35.67314 -117.77731 5694 ft 510 kts 187°
2026-05-05 19:48 35.63885 -117.78189 5461 ft 485 kts 180°
2026-05-05 19:49 35.61068 -117.76812 5718 ft 415 kts 128°
2026-05-05 19:49 35.60508 -117.73695 5719 ft 363 kts 79°
2026-05-05 19:49 35.61053 -117.70810 5597 ft 331 kts 67°
2026-05-05 19:49 35.62124 -117.68471 5442 ft 292 kts 44°
2026-05-05 19:50 35.63547 -117.67227 5065 ft 219 kts 27°
2026-05-05 19:50 35.64837 -117.66619 4377 ft 190 kts 356°
2026-05-05 19:50 35.66135 -117.67075 3414 ft 206 kts 330°
2026-05-05 19:50 35.67406 -117.67848 2412 ft 191 kts 332°
2026-05-05 19:51 35.68466 -117.68483 2321 ft 208 kts 335°
2026-05-05 19:51 35.70847 -117.69649 3373 ft 524 kts 338°
2026-05-05 19:51 35.72045 -117.72999 4497 ft 578 kts 216°
2026-05-05 19:51 35.68336 -117.74512 5771 ft 521 kts 181°
2026-05-05 19:52 35.65054 -117.73792 6362 ft 444 kts 164°
2026-05-05 19:52 35.62416 -117.72389 6921 ft 413 kts 132°
2026-05-05 19:52 35.61681 -117.69054 6087 ft 424 kts 83°
2026-05-05 19:52 35.63167 -117.66532 5623 ft 372 kts 354°
2026-05-05 19:53 35.65689 -117.67182 4179 ft 408 kts 346°
2026-05-05 19:53 35.68884 -117.68699 2673 ft 584 kts 332°
2026-05-05 19:53 35.73119 -117.71638 3867 ft 780 kts 328°
2026-05-05 19:53 35.74249 -117.76358 11640 ft 790 kts 238°
2026-05-05 19:54 35.69073 -117.79365 8201 ft 919 kts 176°
2026-05-05 19:54 35.64130 -117.75844 7447 ft 791 kts 125°
2026-05-05 19:54 35.61173 -117.70725 7737 ft 744 kts 144°
2026-05-05 19:54 35.56012 -117.71757 8291 ft 873 kts 216°
2026-05-05 19:55 35.50503 -117.75444 8689 ft 939 kts 192°
2026-05-05 19:55 35.43967 -117.77007 9010 ft 976 kts 191°
2026-05-05 19:55 35.37181 -117.78394 9169 ft 993 kts 190°
2026-05-05 19:55 35.30393 -117.80086 9219 ft 1001 kts 192°
2026-05-05 19:56 35.24087 -117.81707 11649 ft 846 kts 190°
2026-05-05 19:56 35.18857 -117.82546 11732 ft 687 kts 184°
2026-05-05 19:56 35.14385 -117.82858 11784 ft 616 kts 181°
2026-05-05 19:56 35.10194 -117.82892 11910 ft 592 kts 176°
2026-05-05 19:57 35.06229 -117.83179 11021 ft 546 kts 196°
2026-05-05 19:57 35.02815 -117.85069 8676 ft 529 kts 204°
2026-05-05 19:57 34.99730 -117.87080 7973 ft 483 kts 207°
2026-05-05 19:57 34.96862 -117.88758 7997 ft 436 kts 201°
2026-05-05 19:58 34.94010 -117.89669 7947 ft 413 kts 174°
2026-05-05 19:58 34.91398 -117.88488 7835 ft 395 kts 155°
2026-05-05 19:58 34.88948 -117.87068 7655 ft 381 kts 153°
2026-05-05 19:58 34.86448 -117.85878 6365 ft 375 kts 201°
2026-05-05 19:59 34.86572 -117.87306 6130 ft 231 kts 21°
2026-05-05 19:59 34.88157 -117.86594 5775 ft 266 kts 14°
2026-05-05 19:59 34.89352 -117.84928 5737 ft 284 kts 56°
2026-05-05 19:59 34.90400 -117.82804 6013 ft 312 kts 55°
2026-05-05 20:00 34.91650 -117.80418 5953 ft 355 kts 52°
2026-05-05 20:00 34.93714 -117.79597 5121 ft 323 kts 294°
2026-05-05 20:00 34.93426 -117.81896 4134 ft 278 kts 254°
2026-05-05 20:00 34.92785 -117.84028 3154 ft 254 kts 239°
2026-05-05 20:01 34.91961 -117.85618 2489 ft 189 kts 238°
2026-05-05 20:01 34.91379 -117.86748 2306 ft 124 kts 238°
2026-05-05 20:01 34.90990 -117.87512 2306 ft 90 kts 238°
2026-05-05 20:01 34.90748 -117.87978 2307 ft 59 kts 238°
2026-05-05 20:02 34.90594 -117.88278 2300 ft 21 kts 238°
2026-05-05 20:02 34.90592 -117.88415 2300 ft 19 kts 322°
2026-05-05 20:02 34.90710 -117.88505 2304 ft 21 kts 328°
2026-05-05 20:02 34.90840 -117.88604 2304 ft 23 kts 328°
2026-05-05 20:03 34.90982 -117.88712 2301 ft 25 kts 328°
2026-05-05 20:03 34.91111 -117.88790 2301 ft 17 kts 14°
2026-05-05 20:03 34.91194 -117.88682 2301 ft 19 kts 60°
2026-05-05 20:03 34.91371 -117.88334 2306 ft 58 kts 58°
2026-05-05 20:04 34.91584 -117.87919 2303 ft 58 kts 58°
2026-05-05 20:04 34.91789 -117.87508 2300 ft 49 kts 57°
2026-05-05 20:04 34.91925 -117.87316 2298 ft 23 kts 349°
2026-05-05 20:04 34.91990 -117.87498 2308 ft 30 kts 286°
2026-05-05 20:05 34.92047 -117.87749 2300 ft 32 kts 286°
2026-05-05 20:05 34.92109 -117.88007 2301 ft 32 kts 285°
2026-05-05 20:05 34.92163 -117.88253 2304 ft 21 kts 272°
2026-05-05 20:05 34.92097 -117.88415 2302 ft 22 kts 239°
2026-05-05 20:06 34.91992 -117.88499 2309 ft 1 kts 199°
2026-05-05 20:06 34.91953 -117.88524 2300 ft 7 kts 245°
2026-05-05 20:06 34.91973 -117.88569 2304 ft 8 kts 328°
2026-05-05 20:06 34.91990 -117.88582 2299 ft 0 kts 327°